Temp
41 42 44 44 44 43 38 47 39 51 48 54 52 50 48 49 48 46 46 46 47 48 50 51 51 51 51 51 51 51 50 49 49 50 50 50 50 50 50 50 50 50 49 48
32 39 42 40 43 44 45 49 48 45 48 49 55 52 47 46 45 44 44 46 47 48 49 49 50 50 49 49 50 50 48 48 49 49 49 48 48 48 48 47 48 48 47 46
36 37 37 35 41 42 45 50 48 42 53 45 42 45 45 45 45 45 45 45 46 47 49 49 49 48 49 49 49 48 48 48 48 48 47 47 47 47 46 46 46 45 45 45
29 34 29 44 42 48 46 47 47 46 47 49 48 48 48 48 47 45 45 45 46 47 47 47 48 48 47 47 47 46 46 46 47 46 45 45 45 44 45 45 44 44 44 44
32 34 39 40 39 41 42 45 47 47 43 41 41 42 39 46 48 47 47 48 47 48 47 46 46 46 46 46 46 45 45 45 45 45 43 43 43 43 43 43 43 43 43 43
32 33 32 45 40 44 48 43 46 45 40 38 43 40 38 43 45 45 46 46 46 46 45 45 46 45 44 44 44 43 44 43 44 43 42 42 42 41 43 43 42 43 42 43
37 36 39 43 43 45 40 43 43 44 41 41 44 46 42 43 43 45 45 44 44 44 44 44 44 43 42 42 41 43 43 42 42 42 41 42 41 42 41 41 41 41 40 42
35 33 33 42 40 42 39 38 41 41 41 39 40 39 40 41 41 41 41 41 42 42 42 42 42 41 40 40 42 42 41 41 41 41 41 41 39 39 39 39 39 38 38 39
38 37 35 37 38 40 41 39 39 38 39 39 38 39 40 39 40 40 41 40 40 40 39 41 41 41 38 41 41 40 40 40 40 40 40 40 38 38 37 38 37 36 37 37
35 32 34 36 38 41 41 40 40 41 41 41 39 40 39 39 39 39 39 39 39 38 38 39 41 40 40 40 41 39 38 38 39 38 38 39 38 38 37 36 36 36 35 34
27 31 34 34 37 38 38 40 39 42 42 40 40 38 38 37 37 38 39 38 38 38 37 38 39 39 40 40 39 37 37 37 37 38 36 36 37 38 37 38 37 34 34 33
33 35 36 33 38 40 39 39 40 39 38 39 39 37 38 37 38 38 37 37 37 37 37 37 38 38 38 39 38 36 35 36 36 35 35 36 36 36 38 37 36 35 35 34
34 38 37 38 40 41 38 38 39 38 38 36 37 38 38 37 37 37 37 36 36 36 36 37 36 36 38 38 37 35 34 35 35 34 35 34 34 33 31 35 35 35 35 35
35 34 29 34 34 38 38 38 38 37 37 37 36 37 36 36 36 35 35 36 36 36 35 35 35 35 37 36 35 35 34 33 31 33 34 33 33 31 31 29 28 31 35 34
32 36 34 36 36 36 37 37 35 35 35 34 36 35 35 34 34 35 35 35 35 34 34 34 33 34 36 35 34 33 32 31 33 33 33 33 32 31 31 30 29 30 32 33
34 36 36 34 34 35 35 35 34 32 33 33 34 34 33 33 33 33 34 34 32 31 33 32 32 34 35 34 33 32 32 32 33 32 31 31 31 30 29 29 28 29 29 30
31 30 32 32 33 33 32 33 34 33 32 32 32 32 32 32 32 32 32 33 33 32 32 32 32 34 34 34 32 31 32 32 32 31 30 30 29 28 29 28 27 28 29 31
37 37 37 35 33 32 31 32 32 32 32 32 32 31 31 30 30 30 31 31 31 31 32 33 33 33 34 33 32 32 32 31 30 29 29 28 29 29 28 27 27 27 28 30
35 33 34 33 34 33 32 32 32 31 31 31 30 30 30 30 30 30 30 29 28 27 30 32 32 32 33 32 32 32 31 29 29 29 28 29 28 29 28 27 28 28 28 28
32 32 32 31 32 32 31 31 30 30 30 29 29 28 28 29 29 28 28 27 28 29 31 32 32 32 32 32 31 30 29 28 28 28 28 28 27 28 28 28 28 28 28 28
30 30 30 30 29 30 30 29 29 28 28 28 27 27 27 28 28 27 26 26 30 30 32 31 32 32 32 31 30 29 28 27 27 26 25 25 26 27 27 28 27 27 26 27
28 28 28 28 28 27 27 28 27 27 27 27 27 27 26 26 26 26 28 26 30 30 31 31 31 31 31 28 28 28 27 26 26 26 26 26 25 25 26 26 26 26 27 27
27 27 27 26 25 25 26 26 26 26 25 25 25 25 25 26 26 24 24 29 30 31 30 31 30 30 28 28 27 26 26 25 25 25 24 23 25 25 25 25 26 27 26 26
25 25 25 25 25 25 24 24 25 25 25 25 25 26 25 25 26 28 29 29 29 29 30 30 30 29 27 27 26 25 25 26 24 24 23 25 26 26 25 25 24 27 27 27
22 22 23 22 22 23 23 23 23 23 24 24 25 26 26 27 25 27 28 28 28 28 28 29 28 27 27 27 26 25 25 25 26 24 23 23 23 23 24 24 24 25 25 25
21 22 22 22 23 23 23 23 22 24 23 22 24 25 26 27 27 28 28 27 27 27 27 27 27 28 27 27 26 25 25 24 25 24 23 24 24 24 23 23 23 24 24 25
21 23 22 22 23 23 23 24 22 21 22 22 22 25 25 26 27 28 26 26 25 25 25 26 27 27 27 26 25 25 25 25 25 26 25 25 24 24 23 24 25 25 26 26
MSLP
1008.30 1008.46 1008.56 1008.30 1008.26 1008.82 1008.69 1007.90 1008.06 1007.63 1008.61 1008.92 1010.29 1011.77 1013.23 1014.62 1016.07 1017.26 1018.45 1019.44 1020.14 1020.83 1021.43 1021.99 1022.47 1023.05 1023.53 1023.83 1024.12 1024.40 1024.54 1024.60 1024.53 1024.54 1024.47 1024.27 1024.02 1023.75 1023.45 1023.14 1022.77 1022.32 1021.83 1021.35
1008.89 1009.07 1008.79 1008.53 1008.39 1008.30 1008.27 1008.42 1008.36 1008.66 1009.11 1010.13 1010.87 1012.48 1013.93 1015.10 1016.37 1017.54 1018.68 1019.58 1020.43 1021.14 1021.64 1022.10 1022.59 1023.17 1023.66 1023.93 1024.14 1024.44 1024.46 1024.45 1024.42 1024.38 1024.21 1023.96 1023.70 1023.36 1022.95 1022.53 1022.12 1021.70 1021.21 1020.73
1008.93 1009.30 1009.18 1008.88 1007.54 1007.70 1007.71 1007.73 1008.10 1008.35 1008.61 1010.67 1012.12 1012.89 1013.79 1015.08 1016.40 1017.63 1018.79 1019.78 1020.66 1021.30 1021.81 1022.42 1022.96 1023.41 1023.66 1023.94 1024.24 1024.33 1024.30 1024.26 1024.16 1024.01 1023.83 1023.59 1023.33 1022.96 1022.51 1022.03 1021.58 1021.10 1020.58 1020.17
1009.17 1009.40 1008.94 1007.19 1007.50 1007.22 1007.36 1007.65 1008.37 1008.73 1009.55 1010.49 1011.74 1013.20 1014.61 1015.71 1016.70 1018.06 1019.20 1020.13 1020.97 1021.61 1022.28 1022.80 1023.21 1023.56 1023.86 1024.08 1024.11 1024.20 1024.12 1023.95 1023.79 1023.69 1023.53 1023.33 1022.96 1022.52 1021.96 1021.41 1020.87 1020.37 1019.91 1019.49
1008.00 1008.12 1007.63 1007.45 1007.72 1007.60 1007.42 1007.56 1008.27 1009.13 1010.83 1012.25 1013.60 1014.86 1016.50 1017.10 1017.82 1018.70 1019.63 1020.53 1021.37 1022.06 1022.60 1023.09 1023.40 1023.68 1023.85 1023.89 1023.93 1023.93 1023.82 1023.71 1023.64 1023.53 1023.22 1022.87 1022.41 1021.97 1021.50 1020.91 1020.35 1019.83 1019.36 1018.82
1007.51 1006.97 1006.68 1006.50 1007.43 1007.85 1007.80 1008.16 1008.48 1009.52 1011.24 1012.44 1013.51 1014.50 1016.48 1017.88 1018.67 1019.60 1020.49 1021.23 1021.84 1022.47 1022.98 1023.21 1023.48 1023.81 1023.88 1023.82 1023.91 1023.82 1023.74 1023.66 1023.52 1023.30 1022.98 1022.51 1022.12 1021.67 1021.13 1020.56 1019.80 1019.26 1018.63 1018.23
1007.11 1007.05 1007.14 1007.35 1007.99 1008.51 1009.03 1009.50 1009.63 1010.50 1011.75 1012.92 1013.69 1014.29 1016.69 1018.34 1019.49 1020.33 1021.08 1021.75 1022.37 1022.75 1022.97 1023.40 1023.73 1023.84 1023.84 1023.86 1023.77 1023.76 1023.74 1023.55 1023.30 1023.03 1022.63 1022.25 1021.76 1021.26 1020.71 1020.11 1019.47 1018.72 1018.01 1017.50
1008.07 1008.27 1008.48 1008.58 1009.42 1009.51 1009.94 1010.44 1010.84 1011.82 1013.02 1014.20 1015.10 1016.36 1017.67 1019.01 1020.13 1021.01 1021.67 1022.23 1022.58 1022.81 1023.17 1023.52 1023.74 1023.83 1023.76 1023.74 1023.74 1023.71 1023.52 1023.23 1022.95 1022.58 1022.22 1021.89 1021.45 1020.87 1020.37 1019.71 1018.92 1018.17 1017.44 1016.72
1008.51 1009.25 1009.76 1010.20 1010.33 1010.56 1010.84 1011.21 1012.30 1012.92 1014.20 1015.04 1016.20 1017.50 1018.65 1019.85 1020.74 1021.48 1022.01 1022.51 1022.95 1023.19 1023.38 1023.59 1023.75 1023.89 1023.82 1023.57 1023.53 1023.34 1023.10 1022.72 1022.40 1022.16 1021.82 1021.42 1020.91 1020.42 1019.94 1019.30 1018.63 1017.73 1016.83 1016.02
1009.01 1010.74 1010.98 1011.31 1011.53 1011.55 1012.04 1012.49 1013.41 1014.28 1015.14 1015.99 1017.15 1018.49 1019.48 1020.42 1021.26 1021.89 1022.40 1022.83 1023.22 1023.43 1023.54 1023.65 1023.73 1023.68 1023.54 1023.36 1023.19 1022.98 1022.60 1022.23 1021.98 1021.58 1021.25 1020.96 1020.68 1020.25 1019.50 1018.87 1018.17 1017.35 1016.52 1015.83
1010.97 1011.83 1012.02 1012.61 1012.66 1012.75 1013.18 1013.95 1014.71 1015.72 1016.47 1017.39 1018.24 1019.33 1020.06 1020.90 1021.65 1022.22 1022.66 1023.11 1023.54 1023.73 1023.68 1023.51 1023.39 1023.26 1023.20 1023.07 1022.89 1022.58 1022.26 1021.90 1021.53 1021.18 1020.95 1020.62 1020.24 1019.65 1019.07 1018.61 1018.11 1017.37 1016.86 1016.40
1010.31 1010.87 1011.51 1013.11 1013.53 1013.82 1014.16 1015.32 1016.05 1016.82 1017.86 1018.65 1019.10 1019.86 1020.68 1021.41 1022.06 1022.58 1023.01 1023.35 1023.37 1023.36 1023.29 1023.26 1023.21 1023.04 1022.88 1022.79 1022.64 1022.43 1021.99 1021.48 1021.16 1020.91 1020.50 1020.07 1019.50 1019.03 1018.76 1018.34 1017.87 1017.45 1016.98 1016.31
1011.43 1011.97 1012.54 1013.74 1014.60 1015.19 1015.54 1016.56 1017.36 1017.88 1018.69 1019.44 1020.29 1020.80 1021.31 1021.82 1022.30 1022.57 1022.85 1023.05 1023.11 1023.17 1023.17 1023.07 1022.94 1022.81 1022.69 1022.56 1022.49 1022.21 1021.80 1021.43 1021.12 1020.79 1020.19 1019.66 1019.17 1018.79 1018.12 1017.65 1017.48 1017.04 1016.48 1015.90
1012.52 1012.61 1014.42 1015.09 1015.74 1016.44 1017.00 1017.80 1018.52 1019.25 1019.79 1020.22 1020.72 1021.16 1021.51 1021.88 1022.31 1022.56 1022.75 1023.00 1023.09 1023.06 1023.09 1023.01 1022.88 1022.66 1022.56 1022.52 1022.33 1021.98 1021.65 1021.42 1021.23 1020.78 1020.03 1019.59 1019.16 1018.77 1018.40 1017.95 1017.41 1016.62 1015.98 1015.52
1014.07 1014.46 1015.09 1016.04 1016.87 1017.54 1018.14 1018.76 1019.33 1019.94 1020.45 1020.87 1021.19 1021.50 1021.91 1022.25 1022.52 1022.77 1023.00 1023.13 1023.16 1023.12 1022.94 1022.86 1022.75 1022.55 1022.47 1022.32 1022.06 1021.72 1021.59 1021.30 1020.76 1020.24 1019.95 1019.56 1019.21 1018.82 1018.45 1018.02 1017.38 1016.67 1015.83 1015.07
1015.27 1015.78 1016.48 1017.09 1017.91 1018.56 1019.01 1019.55 1020.00 1020.68 1021.10 1021.51 1021.79 1022.12 1022.42 1022.68 1022.88 1023.02 1023.09 1023.07 1023.04 1022.89 1022.86 1022.80 1022.67 1022.42 1022.25 1022.07 1021.83 1021.57 1021.27 1020.97 1020.57 1020.10 1019.81 1019.49 1019.21 1018.84 1018.46 1017.92 1017.37 1016.67 1015.93 1015.18
1015.94 1016.94 1017.50 1018.16 1018.75 1019.37 1019.87 1020.32 1020.71 1021.20 1021.67 1021.94 1022.25 1022.51 1022.64 1022.74 1022.83 1022.88 1022.93 1022.97 1023.02 1022.94 1022.74 1022.60 1022.36 1022.20 1022.03 1021.77 1021.56 1021.26 1020.77 1020.65 1020.42 1020.11 1019.78 1019.56 1019.28 1018.86 1018.38 1017.97 1017.40 1016.77 1016.00 1015.27
1016.54 1017.28 1017.88 1018.53 1019.36 1020.01 1020.61 1021.04 1021.40 1021.73 1022.02 1022.34 1022.54 1022.67 1022.73 1022.81 1022.85 1022.94 1022.95 1022.91 1022.83 1022.60 1022.39 1022.30 1022.25 1022.09 1021.70 1021.45 1021.26 1020.89 1020.73 1020.54 1020.37 1020.07 1019.88 1019.63 1019.20 1018.82 1018.42 1018.02 1017.44 1016.79 1016.08 1015.35
1017.77 1018.45 1019.10 1019.58 1020.09 1020.56 1021.06 1021.50 1021.88 1022.18 1022.43 1022.59 1022.69 1022.77 1022.89 1022.93 1022.94 1022.93 1022.88 1022.74 1022.59 1022.26 1021.98 1022.06 1021.96 1021.70 1021.47 1021.32 1021.03 1020.86 1020.74 1020.57 1020.36 1020.13 1019.92 1019.53 1019.20 1018.74 1018.42 1018.03 1017.42 1016.81 1016.22 1015.53
1019.32 1019.72 1020.14 1020.61 1021.01 1021.32 1021.68 1022.07 1022.34 1022.49 1022.69 1022.83 1022.85 1022.81 1022.77 1022.76 1022.86 1022.87 1022.77 1022.56 1022.38 1022.20 1022.04 1021.81 1021.49 1021.31 1021.35 1021.17 1021.05 1020.97 1020.86 1020.65 1020.47 1020.24 1019.97 1019.62 1019.31 1018.90 1018.50 1018.02 1017.52 1016.99 1016.44 1015.83
1020.43 1020.79 1021.14 1021.45 1021.78 1022.03 1022.28 1022.58 1022.74 1022.79 1022.85 1022.92 1022.88 1022.81 1022.82 1022.79 1022.78 1022.77 1022.61 1022.31 1022.01 1021.94 1021.67 1021.47 1021.37 1021.28 1021.19 1021.15 1021.17 1021.11 1020.95 1020.76 1020.62 1020.43 1020.14 1019.86 1019.46 1019.01 1018.60 1018.15 1017.66 1017.22 1016.75 1016.17
1021.51 1021.75 1021.98 1022.14 1022.30 1022.49 1022.73 1022.87 1022.96 1022.96 1022.90 1022.88 1022.95 1022.93 1022.82 1022.68 1022.61 1022.52 1022.43 1022.27 1021.85 1021.71 1021.51 1021.38 1021.28 1021.24 1021.27 1021.38 1021.35 1021.23 1021.09 1020.98 1020.80 1020.57 1020.30 1020.00 1019.68 1019.27 1018.80 1018.38 1017.90 1017.47 1017.02 1016.40
1022.36 1022.51 1022.66 1022.77 1022.81 1022.90 1022.97 1023.06 1023.16 1023.08 1022.99 1023.00 1022.91 1022.84 1022.74 1022.56 1022.52 1022.42 1022.01 1021.89 1021.77 1021.55 1021.47 1021.34 1021.31 1021.43 1021.53 1021.54 1021.50 1021.38 1021.26 1021.14 1020.92 1020.71 1020.51 1020.35 1019.90 1019.45 1019.06 1018.65 1018.20 1017.68 1017.27 1016.70
1023.08 1023.20 1023.21 1023.18 1023.12 1023.05 1023.05 1023.13 1023.17 1023.10 1023.04 1023.00 1022.91 1022.77 1022.67 1022.43 1022.24 1022.12 1022.00 1021.85 1021.72 1021.53 1021.52 1021.40 1021.49 1021.60 1021.72 1021.71 1021.62 1021.55 1021.47 1021.31 1021.17 1020.98 1020.80 1020.40 1020.01 1019.71 1019.34 1018.96 1018.53 1017.88 1017.41 1016.86
1023.57 1023.56 1023.61 1023.49 1023.34 1023.32 1023.41 1023.42 1023.32 1023.14 1023.07 1022.92 1022.73 1022.56 1022.49 1022.35 1022.24 1021.90 1021.85 1021.71 1021.63 1021.67 1021.76 1021.75 1021.74 1021.85 1021.87 1021.83 1021.78 1021.75 1021.68 1021.46 1021.23 1021.16 1020.98 1020.71 1020.38 1020.02 1019.61 1019.18 1018.75 1018.13 1017.58 1017.00
1024.11 1023.97 1023.95 1023.94 1023.87 1023.74 1023.60 1023.43 1023.21 1023.06 1022.97 1022.71 1022.52 1022.35 1022.21 1022.06 1021.90 1021.69 1021.61 1021.64 1021.79 1021.86 1021.96 1022.01 1022.03 1021.98 1021.98 1021.95 1021.96 1021.90 1021.80 1021.62 1021.39 1021.30 1021.09 1020.79 1020.47 1020.11 1019.72 1019.23 1018.70 1018.15 1017.58 1017.02
1024.56 1024.34 1024.17 1024.01 1023.90 1023.79 1023.61 1023.21 1023.08 1022.94 1022.81 1022.62 1022.35 1022.08 1021.91 1021.77 1021.67 1021.51 1021.67 1021.85 1022.01 1022.14 1022.25 1022.25 1022.18 1022.16 1022.21 1022.19 1022.10 1021.98 1021.85 1021.75 1021.56 1021.32 1021.11 1020.80 1020.49 1020.19 1019.77 1019.26 1018.70 1018.10 1017.53 1016.94
Wind_Speed
3 3 6 6 18 24 19 17 11 11 10 12 16 16 16 17 17 18 16 15 14 13 11 10 8 7 5 4 2 0 3 5 7 8 9 10 11 12 12 13 13 15 16 17
3 2 3 4 10 22 21 16 13 2 10 3 10 14 16 18 19 18 17 15 14 12 10 8 7 5 4 2 1 3 5 6 7 9 9 11 12 12 14 15 15 16 17 17
7 3 3 5 16 21 18 19 17 15 9 13 11 16 19 19 18 18 17 15 13 11 8 6 5 3 2 2 2 4 5 7 8 10 11 12 13 14 15 16 16 16 17 17
5 5 7 2 2 9 12 14 11 5 9 11 12 10 13 12 17 17 16 14 11 8 6 5 4 1 1 2 4 5 7 8 10 11 12 13 14 15 15 15 16 16 17 17
7 7 2 2 6 10 12 10 16 11 12 13 17 17 10 10 13 16 14 11 8 6 5 4 2 1 2 4 5 6 8 10 11 11 13 14 14 15 15 15 16 16 16 17
4 6 9 3 4 4 4 6 15 14 18 21 18 10 8 14 15 14 12 9 7 6 5 2 3 2 4 6 7 8 10 11 11 12 13 14 15 15 14 15 16 14 16 16
5 3 1 3 6 4 8 2 11 14 17 19 10 3 20 17 14 12 10 9 6 4 3 3 3 4 5 7 8 9 10 11 12 12 13 13 14 14 14 15 16 16 17 15
3 4 8 5 5 6 4 5 11 15 15 12 18 21 20 17 14 11 10 7 5 3 3 3 3 4 7 8 9 9 10 11 12 12 11 11 14 13 14 15 16 15 16 14
2 2 4 4 4 4 6 14 13 17 16 21 21 19 17 14 11 9 7 5 4 2 2 3 4 5 8 9 9 10 11 12 12 12 11 11 12 13 12 13 13 13 13 13
7 4 6 6 8 11 12 16 18 18 19 19 19 16 14 11 9 7 6 5 3 0 4 5 5 6 7 9 9 10 11 12 11 11 11 11 9 10 11 10 12 12 12 12
6 6 11 9 11 16 19 18 19 18 18 18 17 13 12 9 8 6 5 4 2 3 4 6 7 8 8 9 9 10 11 11 10 9 11 11 10 10 11 12 13 13 12 12
4 11 6 10 13 18 20 19 19 19 16 12 13 11 10 8 6 5 4 2 2 4 6 7 8 9 9 9 10 11 11 9 9 9 9 9 10 10 14 19 20 21 23 18
6 7 16 17 16 16 19 16 13 14 13 13 9 9 8 7 5 4 2 3 5 6 7 8 9 9 10 10 10 10 10 11 9 11 10 9 9 11 11 13 17 20 20 20
18 23 18 14 13 13 15 15 15 13 10 9 9 7 6 5 3 3 4 5 6 7 8 8 8 10 10 9 9 10 10 14 9 9 9 8 10 10 9 10 10 11 14 17
12 12 16 15 14 13 13 12 12 10 8 7 6 5 4 2 2 3 4 5 6 7 8 7 9 10 9 8 9 10 9 8 9 8 9 10 9 8 9 10 10 10 10 13
18 18 15 15 14 12 11 10 11 8 6 5 4 3 2 1 3 4 5 5 6 7 9 9 9 9 8 8 9 9 9 13 10 9 8 7 7 8 8 9 9 9 9 10
17 13 15 13 12 9 9 7 7 6 5 4 3 1 1 3 4 4 5 5 5 8 8 8 8 8 8 8 9 7 7 6 10 6 6 6 7 7 8 8 8 8 9 10
13 12 12 12 10 9 7 6 6 5 4 2 1 2 3 4 4 5 5 6 7 8 7 6 6 7 8 8 7 5 6 6 6 6 6 6 7 6 7 7 8 8 9 10
14 14 12 10 8 8 7 6 4 3 1 0 2 3 4 4 4 5 6 7 6 7 6 6 8 9 8 7 7 4 5 5 5 4 4 7 6 6 6 7 7 8 9 9
12 11 10 9 7 6 5 4 2 1 1 2 2 3 4 4 4 5 6 7 6 5 7 7 8 7 5 5 6 3 4 4 4 4 4 5 5 6 6 9 9 8 9 9
10 9 8 7 6 5 4 2 1 2 2 2 3 4 4 5 5 4 6 5 4 4 6 8 6 4 3 3 3 3 3 3 3 3 4 4 5 6 6 8 8 8 8 8
6 6 6 5 4 4 4 3 3 2 3 3 2 4 4 5 4 5 5 6 4 7 6 4 4 3 3 3 2 2 3 3 3 3 3 4 5 6 7 7 7 8 8 8
6 5 4 4 4 3 3 2 2 2 2 4 4 4 4 4 4 4 4 2 4 6 2 3 1 5 4 2 1 2 3 3 3 3 3 4 5 5 6 6 7 7 7 8
4 4 4 4 3 3 4 4 4 4 4 4 4 5 5 4 4 3 3 5 7 3 3 1 3 6 4 2 2 2 2 3 3 3 3 5 5 5 6 7 7 7 7 8
5 4 3 4 4 3 3 4 4 3 3 5 5 4 4 3 4 3 3 4 3 1 2 4 4 4 2 2 2 2 2 3 3 3 3 4 4 5 6 6 6 7 7 7
5 4 3 3 3 3 3 3 3 3 4 4 4 3 3 3 3 3 2 2 1 3 2 2 2 2 2 1 2 2 2 2 3 3 3 4 5 5 6 7 6 6 6 6
3 5 2 3 2 3 4 4 4 4 4 4 5 4 4 3 3 1 3 3 3 3 3 2 2 3 2 2 3 2 2 2 3 2 3 4 5 5 6 6 6 5 6 6
Wind_Direction
53 126 171 193 194 188 200 207 199 215 211 186 187 176 166 158 154 152 152 152 152 148 144 140 139 138 145 141 144 316 297 303 300 303 300 301 300 300 299 296 294 295 295 294
129 146 185 191 203 199 211 210 238 195 210 97 137 142 155 161 160 160 158 153 149 145 144 145 144 145 147 170 277 308 300 299 305 302 305 305 303 301 299 297 296 295 295 297
181 151 144 267 206 191 200 205 206 206 202 154 164 171 169 164 166 160 156 151 148 147 145 142 145 163 210 306 309 289 295 302 305 310 309 307 304 301 299 299 300 298 297 297
118 162 207 22 36 197 189 208 199 127 155 169 158 137 149 161 159 154 150 146 143 140 143 141 134 164 294 274 292 302 307 311 312 310 306 303 300 300 300 301 300 299 299 297
162 208 21 178 187 167 186 210 192 158 137 124 122 112 102 152 153 145 141 136 131 129 120 123 123 83 297 296 316 319 312 308 308 306 304 303 302 304 302 301 299 298 296 297
168 191 212 109 150 180 182 236 178 156 153 148 153 159 145 146 133 127 125 128 132 129 129 123 78 3 319 323 316 306 311 308 304 303 300 300 302 301 299 297 298 298 296 296
179 201 250 129 145 166 178 158 157 152 152 157 159 54 135 133 125 122 124 126 128 124 96 61 30 348 313 309 305 312 305 300 300 300 300 300 299 302 303 301 299 297 298 300
154 202 228 147 114 198 98 102 134 137 145 122 115 119 127 126 126 127 127 124 109 106 67 30 359 321 305 299 309 304 301 298 298 301 303 303 303 304 303 302 302 305 305 301
229 95 56 36 38 109 127 130 128 123 123 123 122 124 126 127 126 122 119 114 105 76 352 340 312 294 292 304 310 307 304 302 305 306 305 306 307 310 308 306 305 302 303 302
155 56 71 79 83 105 120 120 117 115 121 119 120 126 123 123 124 123 114 112 110 76 304 302 302 301 302 309 310 308 307 309 309 309 315 314 311 304 299 304 305 306 308 315
83 112 102 71 109 118 109 108 108 110 114 118 120 120 123 119 117 122 124 128 169 255 285 305 318 316 317 316 318 312 310 308 308 311 315 309 301 303 305 305 311 311 318 314
107 165 88 122 121 120 112 114 114 112 105 100 109 112 120 125 130 137 140 146 317 325 320 320 316 317 318 321 320 312 309 312 315 311 306 303 307 308 310 313 315 314 312 309
124 101 108 116 107 110 110 109 102 101 105 110 108 125 131 132 131 121 87 6 339 328 323 320 319 315 317 322 316 310 309 311 313 310 307 309 315 319 314 321 320 315 313 321
116 111 93 100 113 102 102 100 96 97 98 101 111 106 107 104 101 33 359 344 326 321 315 313 313 310 319 317 311 308 309 311 308 299 307 316 316 319 316 318 317 318 324 324
96 102 109 117 109 102 110 114 104 99 100 90 80 92 99 94 342 335 331 318 311 303 303 312 310 308 316 313 309 310 310 304 301 307 313 318 316 314 316 314 317 318 324 329
108 109 112 109 112 112 108 101 105 104 101 101 100 93 71 338 297 300 304 308 310 314 310 309 303 309 315 310 309 306 306 302 316 314 316 318 318 318 316 321 322 325 326 334
115 119 119 113 115 106 96 94 103 109 112 103 94 76 313 295 293 296 308 310 306 298 304 302 304 311 308 305 313 305 303 318 324 317 320 322 318 314 324 324 326 326 330 334
98 100 104 113 117 115 107 100 101 100 86 73 357 296 281 279 297 304 305 310 308 302 308 312 311 309 307 320 311 313 324 322 321 320 321 322 321 330 330 329 326 335 339 339
94 101 99 96 97 100 102 104 96 89 103 233 267 281 285 288 301 305 308 305 304 301 319 321 316 310 321 324 325 331 326 323 322 323 330 328 337 338 345 339 341 348 346 341
87 87 90 91 80 81 95 83 65 10 355 286 278 279 293 310 315 310 304 296 293 295 306 304 317 320 323 327 349 331 323 322 328 332 335 344 343 340 344 349 349 349 349 347
85 86 86 89 87 77 73 65 348 322 343 326 303 304 302 307 305 297 287 297 319 318 309 320 322 323 329 359 341 330 332 342 339 340 342 340 338 350 355 355 354 355 350 348
80 84 80 71 64 66 45 19 347 331 325 316 287 289 294 295 299 293 282 275 305 317 317 315 322 353 27 16 339 342 359 352 342 336 342 352 358 355 358 354 356 355 352 348
69 64 68 52 34 13 3 42 359 323 321 309 303 300 299 297 296 290 300 347 319 319 342 318 77 77 61 35 22 23 21 11 2 358 5 13 3 358 353 349 349 348 349 346
68 53 44 29 17 18 6 10 353 331 313 302 290 297 290 291 289 250 275 301 307 335 349 113 99 100 82 61 52 51 35 26 23 13 17 17 8 360 351 347 342 340 340 339
31 27 24 18 11 1 337 330 312 305 303 304 303 297 287 261 261 298 301 300 319 85 86 37 90 96 78 62 51 62 39 26 21 21 9 359 347 344 343 338 330 331 333 333
19 13 5 355 334 326 312 309 301 308 304 306 304 299 293 281 277 282 292 157 122 127 126 95 94 79 67 62 40 47 39 19 23 6 350 343 342 344 338 330 327 328 326 324
15 9 360 349 346 333 312 307 323 307 309 304 298 295 293 297 287 268 147 131 121 121 126 106 66 84 65 47 44 40 15 5 349 351 333 333 337 340 333 329 331 330 329 329